Flag for Germany Weather past 2 weeks in Hockenheim, Baden-Württemberg, Germany

Now
93 °F

Sunny.


Feels Like: 93 °F
Forecast: 69 / 98 °F
Wind: 13 mph from Northwest

Location: Baden Wurttemberg - Neuostheim

Current Time: Jul 4, 2015 at 9:23:55 PM

Latest Report: Jul 4, 2015 at 8:50 PM


Visibility: 10 mi

Pressure: 30.07 "Hg

Humidity: 32%

Dew point: 59 °F

Location of HockenheimLocation

Historic Weather in Hockenheim — Graph

°F

Hockenheim temperature yesterday

Maximum temperature yesterday: 97 °F (at 3:50 PM)
Minimum temperature yesterday: 73 °F (at 5:50 AM)
Average temperature yesterday: 88 °F

Past Weeks' High & Low Weather Summary

 TemperatureHumidityPressure
High100 °F (Jul 4, 6:20 PM)100% (Jun 22, 5:50 AM)30.21 "Hg (Jun 22, 5:50 AM)
Low50 °F (Jun 23, 5:20 AM)24% (Jul 1, 2:50 PM)29.74 "Hg (Jun 22, 9:20 PM)
Average72 °F56%30.09 "Hg
* Reported Jun 19 7:20 PM — Jul 4 7:50 PM, Hockenheim, Weather by CustomWeather, © 2015

Note: Actual official high and low records may vary slightly from our data, if they occured in-between our weather recording intervals... More about our weather records

Advertising

Hockenheim weather history for previous 24 hours

 ConditionsComfort  
Time TempWeatherWind HumidityBarometerVisibility
7:50 PM
Sat, Jul 4
99 °FPassing clouds.6 mph24%30.07 "HgN/A
7:20 PM97 °FPassing clouds.8 mph25%30.07 "HgN/A
6:50 PM99 °FPassing clouds.5 mph25%30.07 "HgN/A
6:20 PM100 °FSunny.3 mph24%30.04 "Hg10 mi
5:50 PM99 °FPassing clouds.5 mph25%30.07 "HgN/A
5:20 PM99 °FPassing clouds.6 mph31%30.07 "HgN/A
4:50 PM99 °FPassing clouds.8 mph31%30.07 "HgN/A
4:20 PM99 °FPassing clouds.6 mph33%30.07 "HgN/A
3:50 PM99 °FPassing clouds.7 mph33%30.07 "HgN/A
3:20 PM97 °FSunny.7 mph32%30.07 "Hg10 mi
2:50 PM97 °FPassing clouds.7 mph32%30.07 "HgN/A
2:20 PM95 °FPassing clouds.8 mph34%30.09 "HgN/A
1:50 PM95 °FPassing clouds.8 mph34%30.09 "HgN/A
1:20 PM95 °FPassing clouds.7 mph36%30.09 "HgN/A
12:50 PM91 °FHot.8 mph34%30.09 "HgN/A
12:20 PM91 °FPassing clouds.7 mph38%30.09 "HgN/A
11:50 AM90 °FPassing clouds.7 mph41%30.09 "HgN/A
11:20 AM88 °FPassing clouds.7 mph46%30.12 "HgN/A
10:50 AM88 °FPassing clouds.8 mph46%30.12 "HgN/A
10:20 AM88 °FPassing clouds.8 mph43%30.12 "HgN/A
9:50 AM86 °FPassing clouds.8 mph49%30.12 "HgN/A
9:20 AM86 °FPassing clouds.9 mph49%30.12 "HgN/A
8:50 AM84 °FPassing clouds.7 mph55%30.12 "HgN/A
8:20 AM82 °FPassing clouds.6 mph58%30.12 "HgN/A
7:20 AM79 °FSunny.1 mphN/A30.12 "Hg10 mi
6:50 AM77 °FSunny.2 mph74%30.09 "Hg10 mi
6:20 AM75 °FClear.No wind74%30.12 "Hg10 mi
12:20 AM81 °FClear.2 mph58%30.12 "Hg10 mi
11:50 PM
Fri, Jul 3
82 °FClear.3 mph58%30.15 "Hg10 mi
11:20 PM82 °FClear.1 mph58%30.15 "Hg10 mi
10:50 PM84 °FClear.2 mph55%30.12 "Hg10 mi
10:20 PM86 °FSunny.2 mph49%30.12 "Hg10 mi
9:50 PM90 °FSunny.2 mph41%30.15 "Hg10 mi
9:20 PM91 °FSunny.5 mph36%30.12 "Hg10 mi
Weather by CustomWeather, © 2015

See weather overviewHow to use our weather pages